This is the latest recevied weather packets stored in our database for station/object KE5VT. If no packets are shown the sender has not sent any weather packets the latest 10 day(s).
| Time | Temp. | Humidity | Pressure | Rain* | Wind** | Luminosity | Snow |
|---|---|---|---|---|---|---|---|
| 1787793533 | 22.78° C | 99% | 1013 hPa | 0 mm | - | 0 W/m² | - |
| 1787793233 | 22.78° C | 99% | 1012.9 hPa | 0 mm | - | 0 W/m² | - |
| 1787792928 | 22.22° C | 99% | 1012.9 hPa | 0 mm | - | 0 W/m² | - |
| 1787792623 | 22.78° C | 99% | 1013 hPa | 0 mm | - | 0 W/m² | - |
| 1787792320 | 22.22° C | 99% | 1013.1 hPa | 0 mm | - | 0 W/m² | - |
| 1787792019 | 22.22° C | 99% | 1012.9 hPa | 0 mm | - | 0 W/m² | - |
| 1787791718 | 22.22° C | 99% | 1012.9 hPa | 0 mm | - | 0 W/m² | - |
| 1787791414 | 22.22° C | 99% | 1012.8 hPa | 0 mm | - | 0 W/m² | - |
| 1787791109 | 22.22° C | 99% | 1012.9 hPa | 0 mm | - | 0 W/m² | - |
| 1787790805 | 22.22° C | 99% | 1013 hPa | 1.78 mm | - | 0 W/m² | - |
| 1787790505 | 22.22° C | 99% | 1013 hPa | 3.05 mm | - | 0 W/m² | - |
| 1787790200 | 22.22° C | 99% | 1012.8 hPa | 1.27 mm | - | 0 W/m² | - |
| 1787789896 | 22.22° C | 99% | 1012.8 hPa | 3.05 mm | - | 0 W/m² | - |
| 1787789595 | 22.22° C | 98% | 1012.9 hPa | 8.89 mm | - | 0 W/m² | - |
| 1787789295 | 22.22° C | 98% | 1013 hPa | 18.03 mm | - | 0 W/m² | - |
| 1787788990 | 22.78° C | 97% | 1013.2 hPa | 37.85 mm | - | 0 W/m² | - |
| 1787788688 | 22.78° C | 97% | 1013.1 hPa | 39.62 mm | - | 0 W/m² | - |
| 1787788382 | 25° C | 90% | 1013.3 hPa | 13.72 mm | - | 0 W/m² | - |
| 1787788077 | 26.67° C | 80% | 1013.3 hPa | 0 mm | - | 1 W/m² | - |
| 1787787772 | 26.67° C | 79% | 1012.8 hPa | 0 mm | - | 1 W/m² | - |
| 1787787472 | 26.67° C | 80% | 1012.8 hPa | 0 mm | - | 5 W/m² | - |
| 1787787171 | 26.67° C | 80% | 1012.7 hPa | 0 mm | - | 8 W/m² | - |
| 1787786871 | 26.67° C | 80% | 1012.9 hPa | 0 mm | - | 9 W/m² | - |
| 1787786566 | 26.67° C | 80% | 1012.9 hPa | 0 mm | - | 16 W/m² | - |
| 1787786261 | 26.67° C | 80% | 1012.7 hPa | 0 mm | - | 14 W/m² | - |
* Rain latest hour (hover to see other rain measurements)
** Current wind speed in m/s (hover to see current wind gust speed)